Location: Observatoire
(46.1952°N, 5.3391°E)
Time: 22:42:03
(UTC+01:00)

Tiros 1 despin weight - Pass Details

Date: 23 February 2026
Orbit: 556 x 593 km, 48.2° (Epoch: 7 March)

Event Time Altitude Azimuth Distance (km) Brightness Sun altitude
Rises 16:38:50 0° 278° (W) 2,742 ? 14.7°
Reaches altitude 10° 16:41:06 10° 281° (W) 1,843 ? 14.3°
Maximum altitude 16:45:18 67° 4° (N) 605 ? 13.7°
Drops below altitude 10° 16:49:28 10° 88° (E) 1,835 ? 13.1°
Sets 16:51:44 0° 91° (E) 2,730 ? 12.8°
